Regional Weather Roundup
Issued by NWS

Home | Current Version | Previous Version | Text Only | Print | Product List | Glossary On
Versions: 1 2 3 4 5 6 7 8 9 10 11 12 13 14 15 16 17 18 19 20 21 22 23 24 25 26 27 28 29 30 31 32 33 34 35 36 37 38 39 40 41 42 43 44 45 46 47 48 49 50
000
ASUS44 KFWD 261415
RWRTX
NORTH TEXAS HOURLY WEATHER ROUNDUP
NATIONAL WEATHER SERVICE FORT WORTH TX
900 AM CDT THU MAY 26 2016

NOTE: "FAIR" INDICATES FEW OR NO CLOUDS BELOW 12,000 FEET WITH NO
SIGNIFICANT WEATHER AND/OR OBSTRUCTIONS TO VISIBILITY.

TXZ118-119-261500-
DALLAS/FORT WORTH METROPLEX

CITY           SKY/WX    TMP DP  RH WIND       PRES   REMARKS
DFW AIRPORT    LGT RAIN  78  73  84 S14       29.90S
DALLAS LOVE    LGT RAIN  78  74  87 S14       29.92R
FTW MEACHAM    LGT RAIN  78  73  84 S18       29.86F
DAL-EXECUTIVE  LGT RAIN  76  73  91 S9G17     29.92S FOG
FTW-ALLIANCE   LGT RAIN  77  73  87 S18G28    29.88S
FTW-NAS-JRB    LGT RAIN  78  74  87 S22G30    29.89F
FTW-SPINKS     LGT RAIN  75  72  88 S18G24    29.94R
ARLINGTON      LGT RAIN  79  74  84 S13       29.92S
GRAND PRAIRIE  LGT RAIN  77  75  94 S12G17    29.93S
ADDISON        LGT RAIN  79  75  89 S10G22    29.93S
MESQUITE       LGT RAIN  75  73  94 SE9       29.94R FOG
LANCASTER      CLOUDY    76  72  87 S10G18    29.94S
$$

TXZ091>094-102>105-117-120-121-131>134-261500-
NORTH CENTRAL TEXAS

CITY           SKY/WX    TMP DP  RH WIND       PRES   REMARKS
SHRMAN/DENISON CLOUDY    74  68  82 SE10      29.92S
GAINESVILLE    CLOUDY    75  72  89 SE10G20   29.92R
BOWIE          CLOUDY    75  72  89 SE12G18   29.87R
BRIDGEPORT     CLOUDY    77  74  91 S14G21    29.90R
DECATUR        CLOUDY    76  73  91 SE20G30   29.89S
DENTON         LGT RAIN  78  73  84 S22G31    29.90R
MCKINNEY       CLOUDY    77  73  87 S16       29.91R
GREENVILLE       N/A     77  72  83 S10       29.94S
ROCKWALL       CLOUDY    76  74  93 SE8       29.92S
TERRELL        CLOUDY    77  74  90 S16       29.95R
WAXAHACHIE     LGT RAIN  75  75 100 S10G17    29.95R
CLEBURNE       TSTM      75  75 100 S10       29.95S
GRANBURY       CLOUDY    77  73  85 SE14G22   29.85F
$$

TXZ083>090-098>101-113>116-127>130-139>142-154-155-261500-
WESTERN NORTH TEXAS

CITY           SKY/WX    TMP DP  RH WIND       PRES   REMARKS
WICHITA FALLS  CLOUDY    77  74  90 S7        29.87R
WF-KICKAPOO    CLOUDY    78  73  84 S10       29.87R
VERNON         CLOUDY    77  71  82 E13       29.81F
ABILENE        LGT RAIN  74  61  63 SE22G31   29.87F
ABILENE-DYESS  CLOUDY    74  59  58 SE12      29.84F
BRECKENRIDGE   CLOUDY    79  71  76 S9        29.90R
GRAHAM         CLOUDY    77  75  95 SE6       29.86R
MINERAL WELLS  CLOUDY    77  74  90 S13       29.86S
STEPHENVILLE     N/A     73  69  88 S15G24    29.92R
COMANCHE       CLOUDY    73  64  74 S10G21    29.92R
BROWNWOOD      CLOUDY    73  66  78 SE14G22   29.92R
COLEMAN        CLOUDY    75  71  88 S6        29.94R
$$

TXZ143>147-156>162-174-175-261500-
CENTRAL TEXAS

CITY           SKY/WX    TMP DP  RH WIND       PRES   REMARKS
WACO           TSTM      69  66  90 N9G22     30.00R FOG
WACO-TSTC      TSTM      70  68  94 W13G23    29.97R VSB 1
WACO-MCGREGOR  HVY RAIN N/A N/A N/A N8          N/A  VSB 3/4
HILLSBORO      TSTM      74  73  96 S9        29.95F
CORSICANA      TSTM      77  73  87 S12       29.96S FOG
MEXIA          TSTM      76  75  99 S9        29.95F
HEARNE         CLOUDY    77  75  93 SE6       29.98S
CAMERON        CLOUDY    78  76  93 SE7       29.95F
TEMPLE         LGT RAIN  71  69  93 NE7       29.96R
KILLEEN        LGT RAIN  70  68  94 N16       29.97R
KILLEEN-SKYLRK LGT RAIN  76  75  97 NW3       29.97R FOG
FORT HOOD      LGT RAIN  68  68 100 N14G20    29.95R FOG
GATESVILLE       N/A     66  66 100 SE3       29.98F THUNDER FOG
HAMILTON       CLOUDY    70  70 100 SE10G17   29.97R THUNDER
LAMPASAS       CLOUDY    73  72  95 SE3       29.96R
$$

TXZ095>097-106>112-122>126-135>138-148>153-164>167-261500-
EAST TEXAS

CITY           SKY/WX    TMP DP  RH WIND       PRES   REMARKS
PARIS          CLOUDY    77  66  69 S14G20    29.96S
SULPHUR SPRNGS CLOUDY    79  73  81 S14G21    29.97R
MOUNT PLEASANT CLOUDY    78  74  87 S9        29.99S
GILMER         CLOUDY    77  73  86 S8        29.99R
MINEOLA        CLOUDY    79  73  83 S6        29.98R
TYLER          CLOUDY    78  73  84 S13G21    29.96F
LONGVIEW       PTSUNNY   78  74  87 S13       29.98S
MARSHALL       CLOUDY    75  71  87 S10       30.02S
ATHENS         TSTM      75  75 100 S12       29.96S
PALESTINE      CLOUDY    77  74  91 S5        29.99F
JACKSONVILLE   CLOUDY    76  74  94 S7        30.02S
HENDERSON      CLOUDY    77  73  87 S8        30.00S
CENTER         CLOUDY    80  77  90 S7        30.01S
NACOGDOCHES    CLOUDY    79  73  83 S15       30.01R
LUFKIN         CLOUDY    79  74  84 S6        30.01R
$$

SUPPLEMENTAL OBSERVATIONS (CENTRAL)

CITY           SKY/WX    TMP DP  RH WIND       PRES   REMARKS
LAKE TEXOMA      N/A     77  73  88 SE10        N/A
CADDO GRASSLND   N/A     77  72  83 S7          N/A
PAT MAYSE LAKE   N/A     75  73  94 SE12        N/A
GREENVILLE       N/A     77  72  83 S9          N/A
LAKE LIMESTONE   N/A     77  73  88 S3          N/A
MCGREGOR         N/A     66  63  88 NW3         N/A
TEMPLE           N/A     75  72  88 SE7         N/A
$$

SUPPLEMENTAL OBSERVATIONS (WEST)

CITY           SKY/WX    TMP DP  RH WIND       PRES   REMARKS
MILLERS CREEK    N/A     75  63  64 S8G20       N/A
POSSUM KINGDOM   N/A     79  72  78 S10G18      N/A
LBJ GRASSLAND    N/A     77  73  88 CALM        N/A
GRANBURY         N/A     77  72  83 SE14G36     N/A
COMANCHE         N/A     72  63  73 S13         N/A
HAMBY            N/A     75  63  64 SE9G23      N/A
IVIE RESERVOIR   N/A     73  68  83 E14         N/A
COLORADO BEND    N/A     77  73  88 S7          N/A
$$

SUPPLEMENTAL OBSERVATIONS (EAST)

CITY           SKY/WX    TMP DP  RH WIND       PRES   REMARKS
CLARKSVILLE      N/A     79  75  89 S12         N/A
TEXARKANA        N/A     79  73  83 S6          N/A
LINDEN           N/A     81  73  78 SW5         N/A
CADDO LAKE       N/A     79  73  83 S5          N/A
GILMER           N/A     79  73  83 S6G14       N/A
LUFKIN           N/A     79  75  89 MISG        N/A
N SABINE NF      N/A     79  73  83 MISG        N/A
S SABINE NF      N/A     79  73  83 SE2         N/A
$$

SUPPLEMENTAL OBSERVATIONS ARE A COLLECTION OF AUTOMATED INSTRUMENTS
THAT ARE MAINTAINED BY A VARIETY OF FEDERAL AND STATE AGENCIES.
CERTAIN ELEMENTS...SUCH AS HUMIDITY VALUES AND SUSTAINED WIND
SPEEDS...MAY BE APPROXIMATED.





USA.gov is the U.S. government's official web portal to all federal, state and local government web resources and services.